This is the latest recevied weather packets stored in our database for station/object WC4PEM-11. If no packets are shown the sender has not sent any weather packets the latest 10 day(s).
| Time | Temp. | Humidity | Pressure | Rain* | Wind** | Luminosity | Snow |
|---|---|---|---|---|---|---|---|
| 1787934705 | 32.78° C | 62% | 1018.6 hPa | 0 mm | - | - | - |
| 1787934494 | 32.78° C | 62% | 1018.6 hPa | 0 mm | - | - | - |
| 1787934194 | 33.33° C | 63% | 1018.6 hPa | 0 mm | - | - | - |
| 1787933894 | 32.78° C | 63% | 1018.6 hPa | 0 mm | - | - | - |
| 1787933748 | 32.78° C | 65% | 1018.7 hPa | 0 mm | - | - | - |
| 1787933594 | 32.78° C | 65% | 1018.7 hPa | 0 mm | - | - | - |
| 1787933294 | 32.22° C | 65% | 1018.7 hPa | 0 mm | - | - | - |
| 1787933145 | 32.22° C | 66% | 1018.8 hPa | 0 mm | - | - | - |
| 1787932994 | 32.22° C | 66% | 1018.8 hPa | 0 mm | - | - | - |
| 1787932694 | 32.22° C | 66% | 1018.7 hPa | 0 mm | - | - | - |
| 1787932394 | 31.67° C | 68% | 1018.7 hPa | 0 mm | - | - | - |
| 1787932094 | 31.67° C | 67% | 1018.8 hPa | 0 mm | - | - | - |
| 1787931794 | 31.67° C | 70% | 1018.8 hPa | 0 mm | - | - | - |
| 1787931615 | 31.11° C | 69% | 1018.8 hPa | 0 mm | - | - | - |
| 1787931494 | 31.11° C | 69% | 1018.8 hPa | 0 mm | - | - | - |
| 1787931288 | 31.11° C | 70% | 1018.8 hPa | 0 mm | - | - | - |
| 1787931194 | 31.11° C | 68% | 1018.9 hPa | 0 mm | - | - | - |
| 1787930894 | 31.11° C | 70% | 1018.8 hPa | 0 mm | - | - | - |
| 1787930776 | 31.11° C | 69% | 1018.8 hPa | 0 mm | - | - | - |
| 1787930594 | 31.11° C | 69% | 1018.8 hPa | 0 mm | - | - | - |
| 1787930294 | 31.11° C | 68% | 1018.9 hPa | 0 mm | - | - | - |
| 1787929994 | 31.11° C | 71% | 1018.8 hPa | 0 mm | - | - | - |
| 1787929694 | 30.56° C | 70% | 1018.9 hPa | 0 mm | - | - | - |
| 1787929394 | 31.11° C | 69% | 1018.8 hPa | 0 mm | - | - | - |
| 1787929094 | 31.11° C | 71% | 1018.6 hPa | 0 mm | - | - | - |
* Rain latest hour (hover to see other rain measurements)
** Current wind speed in m/s (hover to see current wind gust speed)